Montauk, NY

1:02 PM EST on December 03, 2016 (GMT -0500)
Montauk

Weather History for KMTP - June, 2014

Change the Weather History Date:

Wednesday, June 4, 2014

  Actual Average (KHTO) Record (KHTO)
Temperature  
Mean Temperature 60 °F -  
Max Temperature 64 °F 70 °F 87 °F (1943)
Min Temperature 57 °F 54 °F 41 °F (1957)
Degree Days  
Heating Degree Days 4    
Growing Degree Days 10 (Base 50)    
Moisture  
Dew Point 57 °F    
Average Humidity 90    
Maximum Humidity 97    
Minimum Humidity 81    
Precipitation  
Precipitation 0.00 in - - ()
Sea Level Pressure  
Sea Level Pressure 29.83 in    
Wind  
Wind Speed 2 mph (NE)    
Max Wind Speed 10 mph    
Max Gust Speed -    
Averages and records for this station are not official NWS values.
T = Trace of Precipitation, MM = Missing Value Source: NWS Daily Summary

Daily Weather History Graph

Daily Weather History Graph

Search for Another Location

Airport or City:

Trip Planner

Search our weather history database for the weather conditions in past years. The results will help you decide how hot, cold, wet, or windy it might be!

Date:

Astronomy

Jun. 04, 2014 Rise Set
Actual Time 5:16 AM EDT 8:15 PM EDT
Civil Twilight 4:43 AM EDT 8:49 PM EDT
Nautical Twilight 4:01 AM EDT 9:31 PM EDT
Astronomical Twilight 3:12 AM EDT 10:20 PM EDT
Moon 11:35 AM EDT (6/4) 12:11 AM EDT (6/4)
Length of Visible Light 16h 05m
Length of Day
14h 59m
Waxing Crescent, 39% of the Moon is Illuminated
Jun 4
Waxing Crescent
Jun 5
First Quarter
Jun 13
Full
Jun 19
Last Quarter
Jun 27
New

Hourly Weather History & Observations

Time (EDT) Temp. Dew Point Humidity Pressure Visibility Wind Dir Wind Speed Gust Speed Precip Events Conditions
12:54 AM 63.0 °F 60.1 °F 90% 29.87 in - Calm Calm - N/A   Unknown
1:54 AM 64.0 °F 62.1 °F 93% 29.86 in - Variable 3.5 mph - N/A   Unknown
2:54 AM 62.1 °F 59.0 °F 90% 29.84 in - Calm Calm - N/A   Unknown
3:54 AM 62.1 °F 60.1 °F 93% 29.82 in - Variable 4.6 mph - N/A   Unknown
4:54 AM 61.0 °F 59.0 °F 93% 29.85 in - Calm Calm - N/A   Unknown
5:54 AM 61.0 °F 57.9 °F 90% 29.85 in - Calm Calm - N/A   Unknown
6:54 AM 61.0 °F 57.0 °F 87% 29.85 in - East 3.5 mph - N/A   Unknown
7:54 AM 60.1 °F 57.0 °F 90% 29.86 in - Calm Calm - N/A   Unknown
8:54 AM 62.1 °F 57.0 °F 84% 29.87 in - Calm Calm - N/A   Unknown
9:54 AM 59.0 °F 54.0 °F 83% 29.88 in - NNE 5.8 mph - N/A   Unknown
10:54 AM 60.1 °F 55.0 °F 83% 29.86 in - NE 10.4 mph - N/A   Unknown
11:54 AM 61.0 °F 55.0 °F 81% 29.85 in - NE 8.1 mph - N/A   Unknown
12:54 PM 59.0 °F 55.0 °F 87% 29.85 in - ENE 6.9 mph - N/A   Unknown
1:54 PM 57.9 °F 55.0 °F 90% 29.84 in - Variable 3.5 mph - N/A   Unknown
2:54 PM 59.0 °F 55.9 °F 90% 29.82 in - NE 4.6 mph - N/A   Unknown
3:54 PM 62.1 °F 57.9 °F 86% 29.80 in - NE 4.6 mph - N/A   Unknown
4:54 PM 61.0 °F 57.0 °F 87% 29.79 in - NE 5.8 mph - N/A   Unknown
5:54 PM 59.0 °F 57.0 °F 93% 29.79 in - Variable 3.5 mph - N/A   Unknown
6:54 PM 59.0 °F 57.0 °F 93% 29.80 in - Variable 3.5 mph - N/A   Unknown
7:54 PM 59.0 °F 57.0 °F 93% 29.79 in - Calm Calm - N/A   Unknown
8:54 PM 59.0 °F 57.9 °F 96% 29.79 in - Calm Calm - N/A   Unknown
9:54 PM 57.9 °F 57.0 °F 97% 29.81 in - Calm Calm - N/A   Unknown
10:54 PM 57.9 °F 57.0 °F 97% 29.80 in - Calm Calm - N/A   Unknown
11:54 PM 57.0 °F 55.9 °F 96% 29.80 in - Calm Calm - N/A   Unknown